Troy, MI

5:33 AM EDT on September 23, 2017 (GMT -0400)
Troy

Weather History for KVLL - August, 2013

Change the Weather History Date:

Thursday, August 22, 2013

  Actual Average (KDET) Record (KDET)
Temperature  
Mean Temperature 78 °F -  
Max Temperature 84 °F 80 °F 96 °F (1968)
Min Temperature 72 °F 62 °F 51 °F (1973)
Cooling Degree Days 13    
Growing Degree Days 28 (Base 50)    
Moisture  
Dew Point 64 °F    
Average Humidity 62    
Maximum Humidity 81    
Minimum Humidity 43    
Precipitation  
Precipitation 0.00 in - - ()
Sea Level Pressure  
Sea Level Pressure 30.05 in    
Wind  
Wind Speed 6 mph (West)    
Max Wind Speed 12 mph    
Max Gust Speed 16 mph    
Visibility 10 miles    
Events      
Averages and records for this station are not official NWS values.
T = Trace of Precipitation, MM = Missing Value Source: NWS Daily Summary

Daily Weather History Graph

Daily Weather History Graph

Search for Another Location

Airport or City:

Trip Planner

Search our weather history database for the weather conditions in past years. The results will help you decide how hot, cold, wet, or windy it might be!

Date:

Astronomy

Aug. 22, 2013 Rise Set
Actual Time 6:47 AM EDT 8:22 PM EDT
Civil Twilight 6:17 AM EDT 8:52 PM EDT
Nautical Twilight 5:41 AM EDT 9:28 PM EDT
Astronomical Twilight 5:03 AM EDT 10:06 PM EDT
Moon 9:02 PM EDT (8/22) 8:38 AM EDT (8/22)
Length of Visible Light 14h 35m
Length of Day
13h 35m
Waning Gibbous, 97% of the Moon is Illuminated
Aug 22
Waning Gibbous
Aug 28
Last Quarter
Sep 5
New
Sep 12
First Quarter
Sep 19
Full

Hourly Weather History & Observations

Time (EDT) Temp. Heat Index Dew Point Humidity Pressure Visibility Wind Dir Wind Speed Gust Speed Precip Events Conditions
12:15 AM 77.0 °F - 65.5 °F 67% 30.07 in 10.0 mi SSW 4.6 mph - N/A   Clear
12:34 AM 76.6 °F - 65.3 °F 68% 30.05 in 10.0 mi SSW 4.6 mph - N/A   Clear
12:54 AM 76.1 °F - 65.3 °F 69% 30.05 in 10.0 mi SSW 5.8 mph - N/A   Clear
1:15 AM 76.1 °F - 65.3 °F 69% 30.05 in 10.0 mi SW 5.8 mph - N/A   Clear
1:34 AM 76.1 °F - 65.3 °F 69% 30.06 in 10.0 mi SW 8.1 mph - N/A   Clear
1:55 AM 75.4 °F - 65.5 °F 71% 30.05 in 10.0 mi SW 9.2 mph - N/A   Clear
2:14 AM 75.4 °F - 65.5 °F 71% 30.05 in 10.0 mi SW 5.8 mph - N/A   Scattered Clouds
2:35 AM 75.4 °F - 65.3 °F 71% 30.04 in 10.0 mi SW 8.1 mph - N/A   Scattered Clouds
2:55 AM 75.4 °F - 65.5 °F 71% 30.04 in 10.0 mi SW 9.2 mph - N/A   Overcast
3:14 AM 75.4 °F - 66.2 °F 73% 30.04 in 10.0 mi WSW 11.5 mph - N/A   Overcast
3:35 AM 74.8 °F - 66.4 °F 75% 30.02 in 10.0 mi SSW 9.2 mph - N/A   Scattered Clouds
3:55 AM 74.5 °F - 66.4 °F 76% 30.02 in 10.0 mi SW 9.2 mph - N/A   Clear
4:14 AM 74.3 °F - 66.4 °F 76% 30.01 in 10.0 mi SSW 8.1 mph - N/A   Clear
4:35 AM 73.8 °F - 66.4 °F 78% 30.00 in 10.0 mi SW 5.8 mph - N/A   Clear
4:55 AM 73.8 °F - 66.6 °F 78% 29.99 in 10.0 mi SSW 5.8 mph - N/A   Clear
5:14 AM 73.6 °F - 66.7 °F 79% 29.99 in 10.0 mi South 4.6 mph - N/A   Clear
5:35 AM 73.4 °F - 66.7 °F 80% 30.02 in 10.0 mi West 8.1 mph - N/A   Mostly Cloudy
5:54 AM 73.4 °F - 67.1 °F 81% 30.03 in 10.0 mi West 4.6 mph - N/A   Scattered Clouds
6:14 AM 73.0 °F - 66.7 °F 81% 30.03 in 10.0 mi WSW 4.6 mph - N/A   Clear
6:35 AM 72.9 °F - 66.7 °F 81% 30.03 in 10.0 mi SW 4.6 mph - N/A   Mostly Cloudy
6:54 AM 72.9 °F - 66.7 °F 81% 30.04 in 10.0 mi West 4.6 mph - N/A   Scattered Clouds
7:15 AM 73.0 °F - 66.6 °F 80% 30.05 in 10.0 mi Calm Calm - N/A   Scattered Clouds
7:34 AM 73.0 °F - 66.6 °F 80% 30.05 in 10.0 mi Calm Calm - N/A   Clear
7:54 AM 73.8 °F - 66.4 °F 78% 30.05 in 10.0 mi NW 3.5 mph - N/A   Clear
8:15 AM 73.9 °F - 66.2 °F 77% 30.07 in 10.0 mi NW 3.5 mph - N/A   Clear
8:34 AM 74.5 °F - 65.8 °F 74% 30.07 in 10.0 mi West 4.6 mph - N/A   Clear
8:55 AM 74.8 °F - 64.9 °F 71% 30.07 in 10.0 mi WNW 4.6 mph - N/A   Clear
9:15 AM 75.6 °F - 64.6 °F 69% 30.07 in 10.0 mi West 4.6 mph - N/A   Clear
9:34 AM 76.3 °F - 64.8 °F 67% 30.07 in 10.0 mi West 5.8 mph - N/A   Clear
9:55 AM 77.4 °F - 63.5 °F 62% 30.07 in 10.0 mi West 5.8 mph - N/A   Clear
10:15 AM 78.8 °F - 63.1 °F 59% 30.07 in 10.0 mi West 5.8 mph - N/A   Clear
10:34 AM 79.0 °F - 62.8 °F 57% 30.06 in 10.0 mi WNW 4.6 mph - N/A   Clear
10:55 AM 81.0 °F 82.2 °F 63.0 °F 54% 30.06 in 10.0 mi West 9.2 mph - N/A   Clear
11:14 AM 82.2 °F 83.2 °F 62.6 °F 51% 30.07 in 10.0 mi West 5.8 mph - N/A   Clear
11:35 AM 82.8 °F 83.8 °F 63.0 °F 51% 30.07 in 10.0 mi West 6.9 mph - N/A   Clear
11:55 AM 83.3 °F 83.9 °F 61.9 °F 48% 30.07 in 10.0 mi West 8.1 mph - N/A   Clear
12:14 PM 83.8 °F 84.7 °F 62.6 °F 49% 30.07 in 10.0 mi WNW 5.8 mph - N/A   Clear
12:35 PM 82.8 °F 83.6 °F 62.6 °F 50% 30.06 in 10.0 mi West 8.1 mph - N/A   Clear
12:54 PM 83.5 °F 84.3 °F 62.4 °F 49% 30.06 in 10.0 mi West 9.2 mph - N/A   Clear
1:15 PM 84.4 °F 85.0 °F 61.9 °F 47% 30.05 in 10.0 mi WNW 11.5 mph 16.1 mph N/A   Clear
1:34 PM 83.8 °F 84.3 °F 61.9 °F 47% 30.06 in 10.0 mi NW 10.4 mph 16.1 mph N/A   Clear
1:55 PM 83.7 °F 84.5 °F 62.6 °F 49% 30.06 in 10.0 mi WNW 6.9 mph - N/A   Clear
2:15 PM 83.7 °F 84.1 °F 61.5 °F 47% 30.05 in 10.0 mi NW 9.2 mph - N/A   Clear
2:34 PM 83.7 °F 84.1 °F 61.3 °F 47% 30.05 in 10.0 mi WNW 8.1 mph - N/A   Clear
2:55 PM 84.7 °F 84.6 °F 60.3 °F 43% 30.05 in 10.0 mi NNW 6.9 mph - N/A   Clear
3:14 PM 84.2 °F 84.4 °F 60.4 °F 45% 30.05 in 10.0 mi West 5.8 mph - N/A   Clear
3:35 PM 84.2 °F 84.2 °F 59.9 °F 44% 30.05 in 10.0 mi West 9.2 mph - N/A   Clear
3:55 PM 84.6 °F 85.0 °F 61.7 °F 46% 30.03 in 10.0 mi WNW 3.5 mph - N/A   Clear
4:14 PM 84.7 °F 84.6 °F 60.3 °F 43% 30.03 in 10.0 mi WNW 8.1 mph - N/A   Clear
4:35 PM 84.6 °F 84.4 °F 60.1 °F 43% 30.03 in 10.0 mi WNW 8.1 mph - N/A   Clear
4:55 PM 84.9 °F 85.0 °F 60.8 °F 44% 30.03 in 10.0 mi WNW 8.1 mph - N/A   Clear
5:14 PM 83.5 °F 83.7 °F 61.0 °F 46% 30.03 in 10.0 mi WNW 9.2 mph - N/A   Clear
5:35 PM 82.9 °F 83.0 °F 59.5 °F 45% 30.04 in 10.0 mi WNW 8.1 mph - N/A   Clear
5:54 PM 82.4 °F 82.7 °F 60.1 °F 47% 30.04 in 10.0 mi NW 8.1 mph - N/A   Clear
6:14 PM 82.0 °F 82.7 °F 61.2 °F 49% 30.04 in 10.0 mi NW 6.9 mph - N/A   Clear
6:35 PM 81.5 °F 82.4 °F 61.7 °F 51% 30.04 in 10.0 mi NW 6.9 mph - N/A   Clear
6:54 PM 81.5 °F 82.4 °F 61.9 °F 51% 30.03 in 10.0 mi WNW 5.8 mph - N/A   Clear
7:15 PM 81.3 °F 82.3 °F 62.1 °F 52% 30.03 in 10.0 mi WNW 8.1 mph - N/A   Clear
7:35 PM 80.8 °F 81.9 °F 62.1 °F 53% 30.04 in 10.0 mi WNW 8.1 mph - N/A   Clear
7:54 PM 80.2 °F 81.6 °F 63.1 °F 56% 30.04 in 10.0 mi WNW 6.9 mph - N/A   Clear
8:15 PM 79.7 °F - 64.4 °F 59% 30.04 in 10.0 mi WNW 5.8 mph - N/A   Clear
8:35 PM 79.2 °F - 64.9 °F 62% 30.04 in 10.0 mi NW 4.6 mph - N/A   Clear
8:54 PM 78.8 °F - 65.3 °F 63% 30.05 in 10.0 mi WNW 4.6 mph - N/A   Clear
9:15 PM 78.1 °F - 65.1 °F 64% 30.05 in 10.0 mi NW 3.5 mph - N/A   Clear
9:34 PM 77.4 °F - 64.6 °F 65% 30.05 in 10.0 mi NNW 5.8 mph - N/A   Clear
9:54 PM 77.2 °F - 64.6 °F 65% 30.05 in 10.0 mi NW 5.8 mph - N/A   Clear
10:15 PM 76.8 °F - 64.6 °F 66% 30.06 in 10.0 mi NNW 6.9 mph - N/A   Clear
10:34 PM 76.1 °F - 64.4 °F 67% 30.06 in 10.0 mi NNW 8.1 mph - N/A   Clear
10:55 PM 75.6 °F - 63.9 °F 67% 30.06 in 10.0 mi North 8.1 mph - N/A   Clear
11:14 PM 75.2 °F - 64.4 °F 69% 30.06 in 10.0 mi NNW 5.8 mph - N/A   Clear
11:35 PM 74.7 °F - 65.8 °F 74% 30.07 in 10.0 mi NNE 6.9 mph - N/A   Scattered Clouds
11:55 PM 73.0 °F - 64.8 °F 75% 30.08 in 10.0 mi NNE 4.6 mph - N/A   Scattered Clouds